EW3163 Weather Reports


Display with metric or nautical units.
time (UTC)temp
F
wind
direction
speed
MPH
gust
MPH
rain 1hr
in
rain 24hr
in
rain mn
in
humidity
%
barometer
mb
20260508211542 50 345 0.0 0.0 0.00 0.00 0.00 94 1019.3
20260508210040 50 345 0.0 0.0 0.00 0.00 0.00 94 1019.3
20260508204537 50 345 0.0 0.0 0.00 0.00 0.00 93 1019.2
20260508203036 51 345 0.0 0.0 0.00 0.00 0.00 93 1019.0
20260508201538 51 344 0.0 0.0 0.00 0.00 0.00 92 1018.9
20260508200044 52 344 0.0 0.0 0.00 0.00 0.00 91 1018.8
20260508194531 52 359 0.0 0.0 0.00 0.00 0.00 90 1018.8
20260508193029 53 359 0.0 0.0 0.00 0.00 0.00 89 1018.7
20260508191531 53 359 0.0 0.0 0.00 0.00 0.00 89 1018.5
20260508190025 53 359 0.0 0.0 0.00 0.00 0.00 88 1017.9
20260508184527 54 359 0.0 0.0 0.00 0.00 0.00 87 1017.8
20260508183019 54 359 0.0 0.0 0.00 0.00 0.00 86 1017.8
20260508181517 54 338 0.0 0.0 0.00 0.00 0.00 85 1017.7
20260508180016 55 70 0.0 0.0 0.00 0.00 0.00 86 1017.7
20260508174514 55 355 0.0 0.0 0.00 0.00 0.00 84 1017.4
20260508173016 55 17 0.0 0.0 0.00 0.00 0.00 84 1017.2
20260508171525 55 17 0.0 0.0 0.00 0.00 0.00 83 1017.2
20260508170011 57 151 0.0 0.0 0.00 0.00 0.00 75 1017.2
20260508164509 59 149 0.0 0.0 0.00 0.00 0.00 71 1016.9
20260508163108 59 191 0.0 0.0 0.00 0.00 0.00 72 1016.7
20260508161511 60 178 0.0 0.0 0.00 0.00 0.00 72 1016.6
20260508160006 60 174 0.0 1.0 0.00 0.00 0.00 71 1016.5
20260508154507 59 204 0.0 0.0 0.00 0.00 0.00 73 1016.7
20260508153005 59 143 0.0 0.0 0.00 0.00 0.00 73 1016.7
20260508151506 59 117 0.0 0.0 0.00 0.00 0.00 71 1016.6
20260508150012 59 143 0.0 4.0 0.00 0.00 0.00 71 1016.5
20260508144508 59 162 0.0 0.0 0.00 0.00 0.00 72 1016.7
20260508143010 59 131 0.0 4.0 0.00 0.00 0.00 75 1016.6
20260508141503 59 143 0.0 3.0 0.00 0.00 0.00 80 1016.6
20260508140003 57 113 0.0 0.0 0.00 0.00 0.00 83 1016.7
20260508134501 57 170 0.0 0.0 0.00 0.00 0.00 82 1016.9
20260508133100 57 145 0.0 0.0 0.00 0.00 0.00 80 1016.6
20260508131604 55 136 0.0 0.0 0.00 0.00 0.00 86 1016.7
20260508130100 54 94 0.0 0.0 0.00 0.00 0.00 85 1016.7
20260508124602 52 115 0.0 0.0 0.00 0.00 0.00 87 1016.6
20260508123058 52 211 0.0 0.0 0.00 0.00 0.00 84 1016.8
20260508121559 53 153 0.0 5.0 0.00 0.00 0.00 78 1017.1
20260508120054 56 145 0.0 6.0 0.00 0.00 0.00 69 1016.5
20260508114601 60 181 0.0 5.0 0.00 0.00 0.00 67 1016.4
20260508113122 62 158 0.0 0.0 0.00 0.00 0.00 65 1016.2
20260508111551 63 129 0.0 0.0 0.00 0.00 0.00 62 1016.2
20260508110051 64 129 0.0 0.0 0.00 0.00 0.00 59 1016.2
20260508104556 65 148 0.0 0.0 0.00 0.00 0.00 58 1016.2
20260508103057 65 142 0.0 0.0 0.00 0.00 0.00 59 1016.2
20260508101550 65 137 0.0 0.0 0.00 0.00 0.00 59 1016.2
20260508100044 63 186 0.0 0.0 0.00 0.00 0.00 62 1016.2
20260508094540 62 187 0.0 0.0 0.00 0.00 0.00 62 1016.2
20260508093036 61 160 0.0 0.0 0.00 0.00 0.00 66 1016.1
20260508091534 60 145 0.0 0.0 0.00 0.00 0.00 66 1016.1
20260508090041 59 142 0.0 0.0 0.00 0.00 0.00 67 1016.1
20260508084527 58 134 0.0 3.0 0.00 0.00 0.00 71 1016.1
20260508083022 57 205 0.0 1.0 0.00 0.00 0.00 73 1016.1
20260508081518 55 169 0.0 0.0 0.00 0.00 0.00 76 1016.1
20260508080014 54 143 0.0 0.0 0.00 0.00 0.00 79 1016.1
20260508074516 53 146 0.0 1.0 0.00 0.00 0.00 80 1015.9
20260508073007 53 195 0.0 0.0 0.00 0.00 0.00 84 1016.0
20260508071503 51 162 0.0 1.0 0.00 0.00 0.00 88 1015.9
20260508064607 49 191 0.0 0.0 0.00 0.00 0.00 92 1015.6
20260508063057 49 184 0.0 1.0 0.00 0.00 0.00 92 1015.5
20260508061601 48 148 0.0 0.0 0.00 0.00 0.00 93 1015.4
20260508060058 47 205 0.0 0.0 0.00 0.00 0.00 94 1015.3
20260508054620 46 205 0.0 0.0 0.00 0.00 0.00 94 1015.2
20260508053052 46 188 0.0 0.0 0.00 0.00 0.00 93 1015.1
20260508051552 46 212 0.0 0.0 0.00 0.00 0.00 93 1015.0
20260508050052 46 174 0.0 0.0 0.00 0.00 0.00 93 1014.8
20260508044548 46 148 0.0 0.0 0.00 0.00 0.00 93 1014.8
20260508043051 46 172 0.0 0.0 0.00 0.00 0.00 93 1014.8
20260508041547 46 163 0.0 0.0 0.00 0.00 0.00 93 1014.7
20260508040054 46 186 0.0 0.0 0.00 0.00 0.00 93 1014.6
20260508034548 46 188 0.0 0.0 0.00 0.00 0.00 93 1014.5
20260508033045 46 190 0.0 0.0 0.00 0.00 0.00 93 1014.4
20260508031552 46 184 0.0 0.0 0.00 0.00 0.00 93 1014.6
20260508030046 46 170 0.0 0.0 0.00 0.00 0.00 92 1014.6
20260508024542 46 155 0.0 0.0 0.00 0.00 0.00 91 1014.5
20260508023039 46 149 0.0 0.0 0.00 0.00 0.00 91 1014.5
20260508021541 47 154 0.0 0.0 0.00 0.00 0.00 90 1014.5
20260508020036 47 145 0.0 0.0 0.00 0.00 0.00 89 1014.5
20260508014534 48 146 0.0 0.0 0.00 0.00 0.00 89 1014.5
20260508013031 48 158 0.0 0.0 0.00 0.00 0.00 88 1014.5
20260508011538 49 175 0.0 0.0 0.00 0.00 0.00 88 1014.6
20260508010032 49 179 0.0 0.0 0.00 0.00 0.00 87 1014.6
20260508004536 49 185 0.0 0.0 0.00 0.00 0.00 86 1014.7
20260508003025 50 187 0.0 0.0 0.00 0.00 0.00 85 1014.7
20260508001527 50 123 0.0 0.0 0.00 0.00 0.00 84 1014.7
20260508000020 50 188 0.0 0.0 0.00 0.00 0.00 83 1014.7
20260507234527 51 191 0.0 1.0 0.00 0.00 0.00 82 1014.6
20260507233024 51 154 0.0 0.0 0.00 0.00 0.00 82 1014.6
20260507231514 51 136 0.0 0.0 0.00 0.00 0.00 81 1014.5
20260507230013 51 190 0.0 1.0 0.00 0.00 0.00 81 1014.5
20260507224518 51 142 0.0 0.0 0.00 0.00 0.00 81 1014.5
20260507223014 51 139 0.0 3.0 0.00 0.00 0.00 80 1014.4
20260507221511 51 187 0.0 0.0 0.00 0.00 0.00 81 1014.5
20260507220010 51 149 0.0 1.0 0.00 0.00 0.00 81 1014.5
20260507214518 51 137 0.0 0.0 0.00 0.00 0.00 82 1014.6
20260507213008 51 137 0.0 0.0 0.00 0.00 0.00 81 1014.5